FW1018 Weather Reports


time (UTC)temp
C
wind
direction
speed
KPH
gust
KPH
rain 1hr
cm
rain 24hr
cm
rain mn
cm
humidity
%
barometer
mb
20260504081540 9 227 0.0 1.6 0.00 0.00 0.00 78 999.5
20260504081040 9 227 0.0 1.6 0.00 0.00 0.00 78 999.6
20260504080540 9 227 0.0 1.6 0.00 0.00 0.00 77 999.6
20260504050537 14 227 3.2 3.2 0.00 0.00 0.00 62 1001.3
20260504045537 14 227 1.6 4.8 0.00 0.00 0.00 62 1001.3
20260504045037 14 227 1.6 4.8 0.00 0.00 0.00 62 1001.2
20260504044537 14 227 3.2 4.8 0.00 0.00 0.00 62 1001.2
20260504044037 14 227 3.2 4.8 0.00 0.00 0.00 62 1001.3
20260504043537 14 227 1.6 3.2 0.00 0.00 0.00 62 1001.3
20260504043037 14 227 1.6 3.2 0.00 0.00 0.00 62 1001.2
20260504042537 14 227 1.6 1.6 0.00 0.00 0.00 63 1001.3
20260504042037 14 227 0.0 1.6 0.00 0.00 0.00 63 1001.3
20260504041537 15 227 0.0 1.6 0.00 0.00 0.00 62 1001.3
20260504041037 15 228 1.6 3.2 0.00 0.00 0.00 62 1001.2
20260504040537 15 227 1.6 3.2 0.00 0.00 0.00 61 1001.2
20260504040037 15 227 3.2 4.8 0.00 0.00 0.00 61 1001.4
20260504034537 15 227 3.2 6.4 0.00 0.00 0.00 60 1001.0
20260504033537 16 227 4.8 6.4 0.00 0.00 0.00 59 1001.2
20260504033036 16 227 4.8 6.4 0.00 0.00 0.00 58 1001.2
20260504032536 16 227 4.8 8.0 0.00 0.00 0.00 58 1001.3
20260504032036 16 227 3.2 9.7 0.00 0.00 0.00 58 1001.3
20260504031036 16 227 4.8 8.0 0.00 0.00 0.00 57 1001.2
20260504030536 16 227 6.4 8.0 0.00 0.00 0.00 57 1001.2
20260504025536 16 227 6.4 8.0 0.00 0.00 0.00 57 1001.0
20260504025036 17 227 6.4 8.0 0.00 0.00 0.00 56 1001.1
20260504024535 17 227 6.4 8.0 0.00 0.00 0.00 56 1000.9
20260504023535 17 227 4.8 6.4 0.00 0.00 0.00 56 1000.9
20260504023035 17 227 4.8 6.4 0.00 0.00 0.00 56 1000.8
20260504022536 17 227 4.8 8.0 0.00 0.00 0.00 56 1000.8
20260504022035 17 227 6.4 8.0 0.00 0.00 0.00 56 1000.7
20260504021535 17 227 6.4 8.0 0.00 0.00 0.00 55 1000.7
20260504021035 17 227 4.8 8.0 0.00 0.00 0.00 55 1000.6
20260504020535 17 227 4.8 12.9 0.00 0.00 0.00 55 1000.5
20260504015535 18 227 6.4 11.3 0.00 0.00 0.00 54 1000.3
20260504014534 18 227 6.4 8.0 0.00 0.00 0.00 54 1000.3
20260504014034 18 227 6.4 8.0 0.00 0.00 0.00 54 1000.2
20260504013534 18 227 6.4 9.7 0.00 0.00 0.00 54 1000.2
20260504012535 18 227 6.4 9.7 0.00 0.00 0.00 53 1000.2
20260504012034 18 228 4.8 8.0 0.00 0.00 0.00 53 1000.1
20260504011535 18 227 4.8 8.0 0.00 0.00 0.00 53 1000.2
20260504011034 18 227 6.4 11.3 0.00 0.00 0.00 53 1000.3
20260504010534 18 227 6.4 11.3 0.00 0.00 0.00 52 1000.3
20260504010034 18 227 6.4 9.7 0.00 0.00 0.00 52 1000.2
20260504005534 19 227 4.8 11.3 0.00 0.00 0.00 52 1000.3
20260504005034 19 227 9.7 11.3 0.00 0.00 0.00 51 1000.3
20260504004534 19 227 8.0 11.3 0.00 0.00 0.00 51 1000.3
20260504003534 20 227 9.7 12.9 0.00 0.00 0.00 50 1000.4
20260504003034 20 227 6.4 12.9 0.00 0.00 0.00 49 1000.5
20260504002534 20 228 6.4 14.5 0.00 0.00 0.00 49 1000.5
20260504001534 20 227 8.0 14.5 0.00 0.00 0.00 47 1000.5
20260504000533 20 228 9.7 14.5 0.00 0.00 0.00 46 1000.3
20260504000034 21 228 9.7 14.5 0.00 0.00 0.00 46 1000.5
20260503235033 21 227 11.3 16.1 0.00 0.00 0.00 46 1000.5
20260503234533 21 228 6.4 12.9 0.00 0.00 0.00 45 1000.5
20260503233033 21 227 11.3 12.9 0.00 0.00 0.00 46 1000.5
20260503232533 21 227 9.7 12.9 0.00 0.00 0.00 46 1000.4
20260503231533 21 227 8.0 16.1 0.00 0.00 0.00 45 1000.4
20260503231033 21 227 11.3 16.1 0.00 0.00 0.00 44 1000.5
20260503230533 21 228 11.3 16.1 0.00 0.00 0.00 44 1000.4
20260503230033 21 227 11.3 19.3 0.00 0.00 0.00 44 1000.5
20260503225032 21 227 9.7 12.9 0.00 0.00 0.00 46 1000.5
20260503224033 21 227 6.4 17.7 0.00 0.00 0.00 45 1000.6
20260503222032 21 227 9.7 20.9 0.00 0.00 0.00 45 1000.8
20260503221532 21 228 12.9 20.9 0.00 0.00 0.00 45 1000.8
20260503220532 21 228 12.9 20.9 0.00 0.00 0.00 44 1000.8
20260503220032 21 229 19.3 22.5 0.00 0.00 0.00 44 1000.8
20260503215031 21 229 14.5 22.5 0.00 0.00 0.00 45 1000.7
20260503214532 21 229 6.4 20.9 0.00 0.00 0.00 48 1000.9
20260503214032 21 229 12.9 22.5 0.00 0.00 0.00 45 1000.8
20260503213531 20 229 9.7 22.5 0.00 0.00 0.00 47 1000.9
20260503213031 20 229 12.9 17.7 0.00 0.00 0.00 48 1000.9
20260503212531 20 229 11.3 25.7 0.00 0.00 0.00 47 1001.0
20260503211531 20 229 11.3 22.5 0.00 0.00 0.00 46 1001.1
20260503211031 20 229 9.7 22.5 0.00 0.00 0.00 47 1001.1
20260503210531 20 229 14.5 25.7 0.00 0.00 0.00 48 1001.2
20260503210031 20 229 17.7 25.7 0.00 0.00 0.00 46 1001.2
20260503205031 20 229 17.7 20.9 0.00 0.00 0.00 46 1001.3
20260503204531 20 229 12.9 20.9 0.00 0.00 0.00 46 1001.4
20260503204030 20 229 17.7 20.9 0.00 0.00 0.00 47 1001.5
20260503203531 20 229 9.7 27.4 0.00 0.00 0.00 48 1001.6
20260503203030 20 229 16.1 27.4 0.00 0.00 0.00 46 1001.8
20260503202030 20 230 17.7 24.1 0.00 0.00 0.00 48 1001.9
20260503201530 19 229 17.7 24.1 0.00 0.00 0.00 47 1001.9
20260503200030 19 229 9.7 27.4 0.00 0.00 0.00 48 1002.2
20260503195530 19 229 19.3 27.4 0.00 0.00 0.00 46 1002.2
20260503194530 19 229 22.5 25.7 0.00 0.00 0.00 47 1002.3
20260503194030 19 229 16.1 27.4 0.00 0.00 0.00 48 1002.4
20260503193530 19 229 16.1 27.4 0.00 0.00 0.00 47 1002.4
20260503193030 19 229 11.3 30.6 0.00 0.00 0.00 45 1002.5
20260503192530 18 229 12.9 30.6 0.00 0.00 0.00 49 1002.4
20260503192030 18 229 16.1 29.0 0.00 0.00 0.00 48 1002.5
20260503191529 18 229 22.5 29.0 0.00 0.00 0.00 46 1002.6
20260503190030 18 229 20.9 32.2 0.00 0.00 0.00 48 1003.0
20260503185529 18 229 16.1 32.2 0.00 0.00 0.00 49 1003.1
20260503185029 18 231 16.1 32.2 0.00 0.00 0.00 51 1003.2
20260503184529 17 231 17.7 32.2 0.00 0.00 0.00 49 1003.2
20260503184029 18 230 19.3 27.4 0.00 0.00 0.00 49 1003.2
20260503183529 18 231 19.3 27.4 0.00 0.00 0.00 52 1003.4
20260503183029 17 231 17.7 29.0 0.00 0.00 0.00 51 1003.5
20260503182029 17 232 16.1 35.4 0.00 0.00 0.00 48 1003.7
20260503181529 17 232 14.5 35.4 0.00 0.00 0.00 50 1003.9
20260503181029 17 232 22.5 32.2 0.00 0.00 0.00 47 1003.8
20260503180529 17 232 22.5 33.8 0.00 0.00 0.00 51 1004.1
20260503175528 17 232 22.5 29.0 0.00 0.00 0.00 49 1004.1
20260503175028 17 231 12.9 29.0 0.00 0.00 0.00 48 1004.1
20260503174528 17 233 25.7 29.0 0.00 0.00 0.00 48 1004.2
20260503173528 16 232 14.5 29.0 0.00 0.00 0.00 51 1004.3
20260503173028 16 232 20.9 27.4 0.00 0.00 0.00 51 1004.2
20260503172528 16 233 11.3 35.4 0.00 0.00 0.00 51 1004.3
20260503172028 16 233 16.1 35.4 0.00 0.00 0.00 52 1004.4
20260503171528 16 232 9.7 35.4 0.00 0.00 0.00 50 1004.6
20260503171028 16 231 9.7 35.4 0.00 0.00 0.00 53 1004.6
20260503170528 16 231 8.0 25.7 0.00 0.00 0.00 54 1004.6
20260503150526 8 226 3.2 14.5 0.00 0.00 0.00 75 1006.9
20260503131024 7 226 3.2 8.0 0.00 0.00 0.00 80 1008.7
20260503130524 7 226 4.8 6.4 0.00 0.00 0.00 79 1008.7
20260503110523 7 228 4.8 8.0 0.00 0.00 0.00 67 1008.1